Weather History for K8D3 - July, 2013

Change the Weather History Date:

Saturday, July 6, 2013

  Actual Average Record
Temperature  
Mean Temperature 76 °F 71 °F  
Max Temperature 83 °F 82 °F 113 °F (1936)
Min Temperature 69 °F 59 °F 45 °F (1997)
Degree Days  
Heating Degree Days 0 0  
Month to date heating degree days 0 3  
Since 1 June heating degree days 69 65  
Since 1 July heating degree days 0 3  
Cooling Degree Days 11 6  
Month to date cooling degree days 53 35  
Year to date cooling degree days 195 152  
Since 1 June cooling degree days 170 129  
Growing Degree Days 26 (Base 50)    
Moisture  
Dew Point 69 °F    
Average Humidity 83    
Maximum Humidity 100    
Minimum Humidity 65    
Precipitation  
Precipitation 0.03 in 0.11 in 2.25 in (1938)
Month to date precipitation 0.03 0.67  
Year to date precipitation 14.95 11.39  
Sea Level Pressure  
Sea Level Pressure 29.71 in    
Wind  
Wind Speed 5 mph (SSE)    
Max Wind Speed 14 mph    
Max Gust Speed 18 mph    
T = Trace of Precipitation, MM = Missing Value Source: NWS Daily Summary

Daily Weather History Graph

Daily Weather History Graph

Search for Another Location

Airport or City:

Trip Planner

Search our weather history database for the weather conditions in past years. The results will help you decide how hot, cold, wet, or windy it might be!

Date:

Astronomy

Jul. 06, 2013 Rise Set
Actual Time 5:45 AM CDT 9:19 PM CDT
Civil Twilight 5:08 AM CDT 9:56 PM CDT
Nautical Twilight 4:18 AM CDT 10:46 PM CDT
Astronomical Twilight 3:12 AM CDT 11:51 PM CDT
Moon 4:35 AM CDT (7/6) 7:58 PM CDT (7/6)
Length of Visible Light 16h 48m
Length of Day
15h 33m
Waning Crescent, 2% of the Moon is Illuminated
Jul 6
Waning Crescent
Jul 8
New
Jul 15
First Quarter
Jul 22
Full
Jul 29
Last Quarter

Hourly Weather History & Observations

Time (CDT) Temp. Heat Index Dew Point Humidity Pressure Visibility Wind Dir Wind Speed Gust Speed Precip Events Conditions
12:56 AM 71.1 °F - 66.0 °F 84% 29.71 in - SSW 4.6 mph - N/A   Unknown
1:56 AM 73.0 °F - 64.0 °F 73% 29.70 in - Calm Calm - N/A   Unknown
2:56 AM 73.0 °F - 64.0 °F 73% 29.69 in - Calm Calm - N/A   Unknown
3:56 AM 72.0 °F - 66.0 °F 81% 29.71 in - WSW 6.9 mph - N/A   Unknown
4:56 AM 72.0 °F - 69.1 °F 91% 29.69 in - SSW 3.5 mph - 0.02 in   Unknown
5:56 AM 72.0 °F - 70.0 °F 93% 29.70 in - ENE 3.5 mph - N/A   Unknown
6:56 AM 72.0 °F - 70.0 °F 93% 29.72 in - West 3.5 mph - 0.01 in   Unknown
7:56 AM 71.1 °F - 70.0 °F 96% 29.72 in - ESE 4.6 mph - N/A   Unknown
8:56 AM 73.9 °F - 69.1 °F 85% 29.70 in - SSE 4.6 mph - N/A   Unknown
9:56 AM 75.9 °F - 66.9 °F 74% 29.69 in - SSE 8.1 mph - N/A   Unknown
10:56 AM 77.0 °F - 68.0 °F 74% 29.71 in - SSE 8.1 mph - N/A   Unknown
11:56 AM 75.9 °F - 66.9 °F 74% 29.71 in - SSE 9.2 mph - N/A   Unknown
12:56 PM 79.0 °F - 68.0 °F 69% 29.72 in - SSE 6.9 mph - N/A   Unknown
1:56 PM 82.0 °F 85.5 °F 69.1 °F 65% 29.71 in - Variable 3.5 mph - N/A   Unknown
2:56 PM 78.1 °F - 69.1 °F 74% 29.71 in - SE 8.1 mph - N/A   Unknown
3:56 PM 75.9 °F - 71.1 °F 85% 29.72 in - ESE 6.9 mph - N/A   Unknown
4:56 PM 80.1 °F 83.6 °F 71.1 °F 74% 29.71 in - SSE 10.4 mph - N/A   Unknown
5:56 PM 82.0 °F 85.9 °F 70.0 °F 67% 29.70 in - SSE 10.4 mph - N/A   Unknown
6:56 PM 82.0 °F 85.9 °F 70.0 °F 67% 29.70 in - SE 11.5 mph - N/A   Unknown
7:56 PM 80.1 °F 83.6 °F 71.1 °F 74% 29.71 in - SE 5.8 mph - N/A   Unknown
8:56 PM 77.0 °F - 72.0 °F 84% 29.72 in - Calm Calm - N/A   Unknown
9:56 PM 73.9 °F - 71.1 °F 91% 29.74 in - East 4.6 mph - N/A   Unknown
10:56 PM 72.0 °F - 70.0 °F 93% 29.74 in - Calm Calm - N/A   Unknown
11:56 PM 70.0 °F - 69.1 °F 97% 29.74 in - Calm Calm - N/A   Unknown